Wind_Speed
5 6 7 7 7 7 7 7 8 8 8 8 7 6 5 4 3 2 1 2 3 3 4 5 6 7 8 9 9 11 13 14 15 14 13 12 11 9 8 8 8 8 8
4 4 5 5 5 5 6 6 6 6 7 7 7 6 6 5 4 3 2 2 2 3 3 4 5 6 7 8 8 9 11 13 15 15 14 14 13 11 10 10 9 9 9
4 3 3 3 3 3 4 4 4 5 5 5 6 6 6 6 5 4 3 3 2 2 2 3 4 5 6 7 8 9 10 11 13 13 14 15 13 12 11 10 9 9 8
5 4 4 3 3 3 2 2 2 2 3 4 4 5 5 5 5 4 4 3 3 2 2 2 3 3 4 5 6 7 8 9 10 11 11 12 11 11 10 9 8 8 8
6 6 6 5 4 4 3 3 2 2 1 2 3 3 4 5 5 5 4 4 3 2 2 2 2 3 3 4 4 4 5 6 7 9 9 9 8 8 8 8 7 7 7
7 8 8 8 7 6 6 5 4 3 3 2 1 2 2 3 3 4 4 3 3 3 2 2 2 2 3 3 3 3 4 4 5 6 6 7 6 6 6 6 6 6 6
8 9 10 10 10 9 9 8 7 6 5 4 3 2 1 1 1 2 2 3 3 2 2 2 2 2 2 2 3 3 3 3 3 4 5 5 4 5 4 4 3 3 3
10 10 11 11 12 12 12 11 10 9 8 7 6 5 4 3 2 1 0 1 2 2 2 2 2 1 2 2 3 3 3 3 3 4 4 4 4 4 4 3 2 1 0
11 12 13 13 13 13 13 13 13 12 11 10 9 8 7 6 5 4 3 2 1 1 1 2 2 1 1 2 2 3 3 3 4 4 4 4 3 3 4 3 3 2 2
13 13 14 15 15 15 15 15 15 15 14 13 13 12 10 9 8 7 6 5 4 2 1 1 1 1 1 1 2 3 3 3 4 4 4 4 4 4 4 4 4 3 3
16 16 16 16 16 17 17 18 18 18 17 17 16 15 14 13 11 10 9 8 7 6 4 2 1 1 0 0 1 3 3 3 4 5 4 4 4 5 5 4 4 3 3
19 19 19 19 19 19 19 20 20 20 21 20 20 19 18 16 15 13 12 11 10 9 7 5 4 3 2 1 2 3 3 4 5 5 5 5 4 4 5 5 4 3 3
24 24 24 24 24 23 23 23 23 24 24 24 23 23 22 20 18 17 15 14 13 12 10 9 7 6 5 4 3 3 3 4 4 5 5 5 5 4 5 5 4 3 3
29 28 28 28 28 28 27 27 26 26 27 28 27 26 25 24 22 20 19 17 16 14 13 12 10 9 8 6 6 5 4 5 5 5 6 6 5 5 5 5 4 4 3
32 32 32 32 32 32 31 31 30 30 30 31 31 30 28 27 25 23 22 21 19 18 16 15 14 12 11 10 9 8 7 6 6 7 7 7 6 6 6 6 6 5 4
36 36 36 36 36 36 35 34 34 33 34 33 34 33 32 30 29 28 26 24 23 21 20 18 17 16 14 13 12 11 10 10 8 8 8 8 8 8 8 7 7 7 6
39 40 40 40 40 40 39 39 39 38 36 36 35 36 35 34 32 30 29 28 27 25 24 22 20 19 17 16 15 14 13 12 11 11 10 10 10 10 9 9 9 8 8
42 42 43 43 43 44 44 43 43 42 41 39 38 38 37 36 34 32 31 30 30 28 26 25 23 21 20 19 18 17 16 16 14 14 13 12 12 12 11 11 11 11 10
42 43 43 44 45 46 46 46 45 46 45 44 42 40 39 38 36 35 34 32 32 31 29 28 27 24 23 22 21 20 19 18 18 17 16 15 15 15 14 14 14 13 13
39 41 42 43 44 46 47 47 48 48 47 46 44 43 41 37 36 35 35 33 32 32 32 31 29 27 26 25 23 22 21 21 20 20 19 18 18 17 17 17 16 16 16
37 38 40 41 43 44 45 46 46 47 47 47 46 45 44 41 38 35 36 35 34 33 33 33 31 29 27 26 25 24 23 23 22 22 22 21 21 20 20 19 19 19 18
35 36 37 38 40 41 43 45 46 46 47 48 47 46 44 43 41 40 37 36 36 35 33 33 32 31 30 29 27 26 25 25 25 24 24 23 23 22 22 22 22 21 21
32 32 33 35 36 37 39 40 42 44 46 46 46 45 45 44 44 42 39 37 36 34 34 35 34 33 32 31 30 27 27 27 26 25 25 25 25 24 24 24 24 23 23
29 31 32 32 32 33 33 35 37 40 42 44 44 44 45 45 44 44 42 40 39 37 35 34 35 34 33 33 32 30 29 29 27 26 26 26 26 26 26 26 25 25 25
26 27 28 28 28 28 28 29 31 34 37 39 41 42 43 43 42 42 42 42 40 39 38 35 33 35 35 34 33 32 30 29 28 27 27 27 27 27 27 26 26 26 26
22 22 22 22 23 23 24 25 27 28 31 34 36 39 40 40 40 40 39 39 39 36 35 36 34 34 35 34 33 33 32 30 29 28 28 28 27 27 27 26 27 27 27
Wind_Direction
117 110 106 99 94 92 89 84 81 77 75 74 74 75 76 78 85 104 141 179 199 208 214 218 216 217 219 222 227 230 232 232 232 233 236 241 248 256 262 271 284 299 311
148 132 123 114 106 102 99 94 90 85 81 78 76 76 76 76 79 89 107 130 162 185 198 206 208 210 217 222 229 236 237 236 235 238 241 242 246 254 260 268 280 290 301
188 175 161 145 135 126 116 107 99 93 87 83 79 78 77 76 77 82 93 106 127 151 169 183 195 207 217 223 233 240 240 239 238 239 244 241 240 248 258 266 277 286 296
218 211 210 203 191 178 165 151 129 113 102 94 87 83 81 79 77 78 82 89 104 121 139 162 181 199 212 218 227 238 241 238 235 239 243 242 239 243 253 264 270 283 292
240 234 231 230 228 221 215 213 212 200 159 121 104 94 86 82 79 76 76 78 83 96 112 143 178 194 204 205 214 227 233 230 232 235 239 240 238 239 251 260 269 278 286
254 251 246 243 242 240 237 236 238 238 233 213 168 132 108 93 83 76 71 71 74 81 91 112 145 168 186 197 202 212 222 218 226 226 224 231 235 239 246 256 272 276 283
260 260 257 253 250 248 245 244 246 247 245 241 231 219 199 160 111 82 69 63 64 65 72 90 112 143 172 184 189 194 201 204 214 210 212 224 225 225 230 242 256 265 286
265 265 263 260 256 253 251 250 250 250 249 248 244 240 237 237 235 228 77 53 52 51 56 69 87 125 166 186 192 194 193 184 179 177 191 201 205 210 210 206 198 192 32
272 269 268 266 263 259 256 254 253 253 252 250 250 247 243 245 248 250 254 256 287 18 42 62 77 96 159 198 201 197 195 188 174 163 178 185 182 185 183 169 151 125 95
276 272 269 268 267 265 261 257 255 254 253 252 252 252 250 250 250 250 253 253 255 262 289 17 74 92 133 198 197 193 192 187 177 168 175 173 169 172 171 160 147 134 108
278 275 271 268 265 264 263 262 259 256 254 253 252 253 252 251 250 250 250 251 253 253 253 257 268 258 218 186 191 186 184 180 177 176 175 170 162 164 161 157 149 138 120
276 275 273 270 266 262 260 259 259 257 255 253 253 252 251 250 249 249 249 249 250 250 249 248 248 249 244 230 205 186 176 171 173 174 176 171 164 165 171 170 165 151 134
274 273 272 270 269 267 264 260 257 257 255 253 252 252 252 249 246 246 248 247 248 249 249 247 244 241 241 235 225 205 186 173 174 181 186 181 176 174 176 178 176 173 168
272 271 270 270 269 268 267 265 261 259 257 255 253 253 253 251 248 245 246 247 247 247 248 248 246 240 240 236 230 223 212 195 190 196 197 195 191 190 190 189 191 191 193
272 270 269 268 267 266 266 266 264 262 261 259 256 254 254 252 249 245 242 243 245 245 246 246 246 243 241 239 234 230 229 221 209 214 209 207 206 205 204 204 205 207 215
270 269 268 267 267 266 266 265 266 265 264 262 261 257 253 251 250 247 243 241 242 243 245 245 245 244 243 242 239 236 234 232 223 225 223 218 217 217 218 219 221 225 234
269 268 267 267 266 266 265 265 264 265 266 265 263 261 258 253 249 249 245 241 241 242 244 244 244 243 242 241 240 238 236 236 233 232 233 229 226 227 229 230 233 236 242
270 269 267 267 266 266 266 265 265 264 264 265 264 262 261 258 252 248 249 246 242 243 243 243 243 243 243 241 240 239 237 237 237 237 238 237 236 236 236 238 241 244 248
273 272 270 269 268 266 265 264 264 265 265 264 264 264 263 261 256 252 249 249 246 243 242 241 242 244 243 242 240 240 239 239 240 240 239 239 239 241 242 243 247 250 253
276 274 273 271 270 268 267 266 265 264 265 264 263 263 264 262 259 257 254 251 248 246 242 242 243 242 241 241 241 241 241 241 242 242 241 239 240 241 245 247 250 253 256
280 278 276 274 272 270 268 267 266 265 264 264 263 261 262 261 259 258 257 255 250 249 248 244 240 239 238 239 240 240 241 242 243 244 243 242 242 242 244 248 251 254 256
283 282 279 276 273 271 269 267 266 264 263 263 264 263 261 261 260 258 258 258 255 252 249 246 241 238 236 236 239 239 240 242 242 243 245 246 246 246 246 248 251 254 258
287 285 283 280 277 274 271 268 265 263 262 262 261 260 259 259 259 259 259 256 255 254 249 245 241 238 238 237 237 237 238 239 241 242 246 248 249 249 250 250 251 253 256
291 290 288 286 282 278 273 269 266 263 261 259 258 257 257 258 259 258 257 254 253 253 250 248 244 239 237 235 235 237 238 238 240 243 247 248 250 251 251 253 254 254 255
299 297 293 290 286 282 278 273 270 265 261 259 257 255 255 255 255 256 256 254 253 255 252 249 244 242 239 237 237 237 237 238 241 243 246 248 250 252 252 254 256 257 257
309 305 301 295 291 287 283 279 276 269 262 259 256 252 251 251 251 251 253 252 251 249 249 249 244 242 241 239 238 238 238 239 240 241 244 247 250 251 252 254 256 257 259
Height
5916 5916 5916 5916 5915 5915 5914 5914 5913 5913 5912 5911 5910 5909 5909 5908 5908 5907 5907 5907 5907 5907 5907 5908 5909 5909 5910 5911 5913 5914 5915 5915 5917 5918 5919 5920 5920 5921 5921 5921 5921 5921 5921
5917 5917 5917 5917 5917 5916 5916 5915 5915 5914 5913 5912 5912 5911 5910 5909 5909 5908 5908 5907 5907 5907 5907 5908 5908 5909 5910 5911 5912 5913 5913 5914 5915 5916 5917 5918 5919 5920 5920 5921 5921 5921 5921
5917 5917 5917 5917 5917 5917 5917 5916 5916 5915 5914 5914 5913 5912 5911 5911 5910 5909 5909 5908 5908 5908 5908 5908 5908 5908 5909 5910 5911 5911 5912 5912 5913 5915 5915 5915 5917 5918 5919 5920 5920 5920 5920
5918 5918 5918 5918 5918 5918 5917 5917 5917 5916 5915 5915 5914 5913 5913 5912 5911 5910 5910 5909 5908 5908 5908 5908 5908 5908 5909 5909 5910 5910 5910 5911 5912 5913 5912 5913 5915 5917 5918 5919 5919 5919 5920
5918 5918 5917 5918 5918 5917 5917 5917 5917 5916 5916 5915 5915 5914 5914 5913 5912 5911 5910 5910 5909 5909 5908 5908 5908 5908 5908 5909 5909 5909 5909 5910 5911 5911 5912 5912 5914 5916 5917 5918 5918 5919 5919
5917 5917 5917 5917 5917 5917 5917 5917 5917 5916 5916 5916 5915 5915 5914 5914 5913 5912 5911 5911 5910 5909 5909 5908 5908 5908 5908 5908 5909 5909 5909 5909 5910 5910 5911 5912 5913 5915 5916 5917 5918 5918 5918
5917 5916 5916 5916 5916 5916 5916 5916 5916 5916 5916 5916 5915 5915 5914 5914 5913 5913 5912 5911 5910 5910 5909 5909 5908 5908 5908 5909 5909 5909 5909 5909 5909 5910 5910 5911 5913 5914 5915 5916 5917 5917 5917
5915 5915 5915 5915 5914 5914 5914 5915 5915 5915 5915 5915 5915 5915 5914 5914 5913 5913 5912 5912 5911 5910 5910 5909 5909 5908 5908 5908 5909 5909 5909 5909 5909 5910 5911 5911 5913 5914 5915 5916 5916 5917 5917
5914 5913 5913 5913 5912 5912 5913 5913 5913 5913 5913 5914 5914 5913 5913 5913 5913 5913 5912 5912 5911 5911 5910 5910 5909 5909 5909 5908 5908 5908 5909 5909 5909 5910 5911 5912 5913 5914 5914 5915 5916 5917 5918
5912 5911 5911 5910 5910 5910 5910 5910 5910 5911 5911 5911 5912 5912 5912 5912 5912 5912 5912 5911 5911 5911 5910 5910 5909 5909 5909 5908 5908 5908 5909 5909 5910 5911 5911 5912 5913 5913 5914 5915 5917 5917 5918
5909 5909 5908 5908 5907 5907 5907 5907 5907 5907 5908 5908 5909 5909 5910 5910 5910 5910 5910 5910 5910 5910 5910 5910 5909 5909 5909 5908 5908 5908 5909 5909 5910 5911 5911 5912 5913 5914 5915 5916 5917 5918 5918
5905 5905 5904 5904 5903 5903 5903 5903 5903 5903 5903 5904 5905 5906 5906 5907 5908 5908 5908 5908 5909 5909 5909 5909 5909 5909 5909 5908 5908 5908 5909 5910 5910 5911 5912 5912 5913 5914 5915 5916 5917 5918 5919
5901 5901 5900 5900 5899 5898 5898 5898 5899 5899 5899 5899 5900 5901 5902 5903 5904 5905 5905 5906 5906 5907 5907 5907 5908 5908 5908 5908 5908 5909 5909 5910 5910 5911 5912 5913 5913 5914 5915 5916 5917 5918 5919
5896 5895 5895 5894 5894 5893 5893 5893 5893 5893 5894 5894 5895 5896 5897 5898 5899 5901 5902 5902 5903 5904 5905 5905 5906 5906 5907 5907 5908 5908 5909 5909 5910 5911 5911 5912 5913 5914 5915 5916 5917 5918 5919
5889 5889 5888 5887 5887 5886 5886 5886 5887 5887 5888 5888 5889 5890 5891 5892 5894 5896 5897 5898 5900 5901 5902 5903 5904 5904 5905 5906 5906 5907 5908 5909 5910 5910 5911 5912 5913 5914 5915 5916 5917 5918 5919
5881 5881 5880 5880 5879 5879 5879 5879 5880 5880 5881 5881 5882 5883 5884 5886 5888 5890 5892 5893 5895 5896 5898 5899 5900 5902 5902 5903 5904 5905 5906 5907 5908 5909 5909 5911 5912 5913 5914 5915 5916 5917 5918
5872 5871 5871 5871 5871 5871 5871 5871 5872 5872 5873 5874 5875 5876 5877 5879 5881 5883 5885 5887 5889 5891 5893 5894 5896 5898 5899 5900 5901 5902 5903 5904 5906 5907 5908 5909 5910 5911 5913 5914 5915 5916 5917
5862 5861 5861 5861 5861 5861 5861 5862 5863 5863 5864 5866 5867 5868 5870 5871 5873 5875 5878 5880 5882 5885 5887 5889 5891 5893 5895 5896 5897 5899 5900 5901 5903 5905 5906 5907 5908 5910 5911 5912 5913 5915 5916
5852 5851 5851 5851 5851 5851 5851 5852 5853 5854 5855 5857 5858 5860 5862 5864 5866 5868 5870 5873 5875 5878 5881 5883 5885 5888 5890 5892 5893 5894 5896 5898 5899 5901 5903 5905 5906 5907 5908 5910 5911 5912 5914
5841 5840 5840 5840 5840 5840 5840 5841 5842 5844 5845 5847 5849 5851 5853 5855 5857 5860 5863 5865 5868 5871 5874 5877 5879 5881 5884 5886 5888 5890 5892 5894 5895 5897 5899 5901 5902 5904 5905 5906 5908 5909 5911
5832 5830 5829 5829 5828 5828 5829 5829 5831 5832 5834 5836 5838 5841 5844 5847 5849 5852 5855 5857 5860 5863 5866 5869 5872 5874 5877 5880 5882 5885 5887 5889 5891 5892 5894 5896 5898 5900 5902 5903 5904 5906 5907
5822 5820 5819 5818 5817 5817 5817 5817 5819 5820 5823 5825 5828 5831 5834 5837 5840 5844 5847 5850 5852 5856 5859 5861 5864 5867 5870 5873 5876 5879 5881 5884 5885 5887 5889 5891 5893 5895 5897 5899 5900 5902 5903
5814 5811 5809 5808 5806 5806 5805 5806 5807 5808 5810 5813 5816 5820 5823 5827 5831 5834 5838 5841 5844 5847 5851 5854 5857 5860 5863 5866 5869 5872 5875 5877 5879 5882 5884 5886 5888 5890 5892 5894 5895 5897 5899
5806 5803 5800 5798 5797 5795 5795 5795 5796 5797 5799 5801 5804 5808 5812 5816 5820 5824 5828 5832 5836 5839 5843 5846 5849 5853 5856 5859 5862 5865 5868 5871 5874 5876 5878 5880 5882 5884 5886 5888 5890 5891 5894
5799 5796 5793 5790 5788 5787 5786 5786 5786 5786 5788 5790 5793 5796 5800 5804 5809 5814 5818 5823 5826 5830 5834 5838 5841 5845 5848 5851 5855 5858 5861 5864 5867 5870 5872 5874 5876 5878 5880 5882 5883 5885 5887
5793 5790 5787 5784 5782 5780 5779 5778 5777 5777 5778 5780 5782 5785 5789 5794 5798 5803 5808 5812 5817 5821 5825 5829 5833 5836 5840 5843 5847 5850 5853 5856 5859 5862 5864 5867 5869 5871 5873 5875 5877 5879 5881